Egegik, AK

1:21 PM AKDT on May 25, 2018 (GMT -0800)
Egegik

Weather History for PAII - June, 2013

Change the Weather History Date:

Wednesday, June 19, 2013

  Actual Average (PAKN) Record (PAKN)
Temperature  
Mean Temperature 56 °F -  
Max Temperature 64 °F 59 °F 77 °F (2015)
Min Temperature 48 °F 42 °F 34 °F (2017)
Degree Days  
Heating Degree Days 9    
Growing Degree Days 6 (Base 50)    
Moisture  
Dew Point 46 °F    
Average Humidity 68    
Maximum Humidity 88    
Minimum Humidity 45    
Precipitation  
Precipitation 0.00 in - - ()
Sea Level Pressure  
Sea Level Pressure 29.80 in    
Wind  
Wind Speed 13 mph (SE)    
Max Wind Speed 23 mph    
Max Gust Speed 31 mph    
Visibility 10 miles    
Events      
Averages and records for this station are not official NWS values.
T = Trace of Precipitation, MM = Missing Value Source: NWS Daily Summary

Daily Weather History Graph

Daily Weather History Graph

Search for Another Location

Airport or City:

Astronomy

Jun. 19, 2013 Rise Set
Actual Time 5:23 AM AKDT 11:38 PM AKDT
Civil Twilight 4:06 AM AKDT 12:55 AM AKDT
Nautical Twilight Sun does not set Sun does not set
Astronomical Twilight Sun does not set Sun does not set
Moon 7:04 PM AKDT (6/19) 3:06 AM AKDT (6/19)
Length of Visible Light 20h 49m
Length of Day
18h 14m
Waxing Gibbous, 82% of the Moon is Illuminated
Jun 19
Waxing Gibbous
Jun 23
Full
Jun 29
Last Quarter
Jul 7
New
Jul 15
First Quarter

Hourly Weather History & Observations

Time (AKDT) Temp. Dew Point Humidity Pressure Visibility Wind Dir Wind Speed Gust Speed Precip Events Conditions
12:16 AM 57.2 °F 48.2 °F 72% 29.81 in 10.0 mi ESE 8.1 mph - N/A   Scattered Clouds
12:36 AM 55.4 °F 48.2 °F 77% 29.80 in 10.0 mi SSE 9.2 mph - N/A   Mostly Cloudy
12:56 AM 55.4 °F 48.2 °F 77% 29.80 in 10.0 mi SE 9.2 mph - N/A   Scattered Clouds
1:16 AM 51.8 °F 46.4 °F 82% 29.80 in 10.0 mi ESE 9.2 mph - N/A   Clear
1:36 AM 51.8 °F 46.4 °F 82% 29.81 in 10.0 mi ESE 8.1 mph - N/A   Clear
1:56 AM 51.8 °F 46.4 °F 82% 29.80 in 10.0 mi ESE 13.8 mph - N/A   Clear
2:16 AM 53.6 °F 46.4 °F 77% 29.80 in 10.0 mi SE 12.7 mph - N/A   Clear
2:36 AM 51.8 °F 44.6 °F 76% 29.80 in 10.0 mi ESE 12.7 mph - N/A   Clear
2:56 AM 50.0 °F 44.6 °F 82% 29.80 in 10.0 mi ESE 11.5 mph - N/A   Clear
3:16 AM 51.8 °F 44.6 °F 76% 29.80 in 10.0 mi ESE 12.7 mph - N/A   Clear
3:36 AM 50.0 °F 44.6 °F 82% 29.80 in 10.0 mi ESE 12.7 mph - N/A   Clear
3:56 AM 48.2 °F 42.8 °F 82% 29.80 in 10.0 mi ESE 11.5 mph - N/A   Clear
4:16 AM 48.2 °F 44.6 °F 87% 29.79 in 10.0 mi SE 11.5 mph - N/A   Clear
4:36 AM 51.8 °F 46.4 °F 82% 29.79 in 10.0 mi SE 13.8 mph - N/A   Clear
4:56 AM 51.8 °F 46.4 °F 82% 29.79 in 10.0 mi SE 13.8 mph - N/A   Clear
5:16 AM 51.8 °F 46.4 °F 82% 29.79 in 10.0 mi SE 16.1 mph - N/A   Clear
5:36 AM 51.8 °F 46.4 °F 82% 29.79 in 10.0 mi SE 15.0 mph - N/A   Clear
5:56 AM 51.8 °F 46.4 °F 82% 29.80 in 10.0 mi SE 17.3 mph - N/A   Clear
6:16 AM 53.6 °F 46.4 °F 77% 29.79 in 10.0 mi SSE 16.1 mph - N/A   Partly Cloudy
6:36 AM 53.6 °F 46.4 °F 77% 29.79 in 10.0 mi SSE 12.7 mph - N/A   Partly Cloudy
6:56 AM 53.6 °F 46.4 °F 77% 29.80 in 10.0 mi SE 10.4 mph - N/A   Clear
7:16 AM 53.6 °F 46.4 °F 77% 29.80 in 10.0 mi SE 11.5 mph - N/A   Clear
7:36 AM 53.6 °F 46.4 °F 77% 29.80 in 10.0 mi SE 11.5 mph - N/A   Clear
7:56 AM 55.4 °F 48.2 °F 77% 29.80 in 10.0 mi SSE 12.7 mph - N/A   Clear
8:16 AM 55.4 °F 46.4 °F 72% 29.80 in 10.0 mi SSE 11.5 mph - N/A   Scattered Clouds
8:36 AM 55.4 °F 46.4 °F 72% 29.80 in 10.0 mi SE 11.5 mph - N/A   Mostly Cloudy
8:56 AM 55.4 °F 46.4 °F 72% 29.80 in 10.0 mi SE 8.1 mph - N/A   Mostly Cloudy
9:16 AM 55.4 °F 46.4 °F 72% 29.81 in 10.0 mi SSE 9.2 mph - N/A   Overcast
9:36 AM 55.4 °F 46.4 °F 72% 29.82 in 10.0 mi ESE 6.9 mph - N/A   Overcast
9:56 AM 57.2 °F 46.4 °F 67% 29.82 in 10.0 mi ESE 8.1 mph - N/A   Mostly Cloudy
10:16 AM 57.2 °F 46.4 °F 67% 29.82 in 10.0 mi East 8.1 mph - N/A   Overcast
10:36 AM 57.2 °F 46.4 °F 67% 29.82 in 10.0 mi East 6.9 mph - N/A   Scattered Clouds
10:56 AM 60.8 °F 46.4 °F 59% 29.81 in 10.0 mi ESE 12.7 mph - N/A   Clear
11:16 AM - - N/A% - - ESE 11.5 mph - N/A   Unknown
11:36 AM 60.8 °F 44.6 °F 55% 29.81 in 10.0 mi East 15.0 mph 20.7 mph N/A   Mostly Cloudy
11:56 AM 60.8 °F 44.6 °F 55% 29.81 in 10.0 mi ESE 13.8 mph - N/A   Mostly Cloudy
12:16 PM 62.6 °F 44.6 °F 52% 29.81 in 10.0 mi SE 17.3 mph 24.2 mph N/A   Mostly Cloudy
12:36 PM 62.6 °F 44.6 °F 52% 29.81 in 10.0 mi ESE 16.1 mph 21.9 mph N/A   Mostly Cloudy
12:56 PM 64.4 °F 42.8 °F 45% 29.80 in 10.0 mi ESE 20.7 mph 24.2 mph N/A   Overcast
1:16 PM 64.4 °F 42.8 °F 45% 29.80 in 10.0 mi ESE 16.1 mph 23.0 mph N/A   Mostly Cloudy
1:36 PM 64.4 °F 44.6 °F 49% 29.80 in 10.0 mi ESE 15.0 mph - N/A   Partly Cloudy
1:56 PM 64.4 °F 42.8 °F 45% 29.80 in 10.0 mi ESE 17.3 mph 23.0 mph N/A   Scattered Clouds
2:16 PM 64.4 °F 44.6 °F 49% 29.80 in 10.0 mi ESE 16.1 mph - N/A   Overcast
2:36 PM 64.4 °F 44.6 °F 49% 29.79 in 10.0 mi ESE 16.1 mph - N/A   Overcast
2:56 PM 64.4 °F 44.6 °F 49% 29.79 in 10.0 mi ESE 18.4 mph 24.2 mph N/A   Overcast
3:16 PM 64.4 °F 44.6 °F 49% 29.79 in 10.0 mi ESE 19.6 mph - N/A   Overcast
3:36 PM 64.4 °F 44.6 °F 49% 29.79 in 10.0 mi SE 18.4 mph 24.2 mph N/A   Overcast
3:56 PM 62.6 °F 44.6 °F 52% 29.79 in 10.0 mi SE 18.4 mph 24.2 mph N/A   Overcast
4:16 PM 62.6 °F 44.6 °F 52% 29.79 in 10.0 mi SE 16.1 mph - N/A   Overcast
4:36 PM 62.6 °F 44.6 °F 52% 29.78 in 10.0 mi SE 15.0 mph - N/A   Overcast
4:56 PM 60.8 °F 44.6 °F 55% 29.78 in 10.0 mi SSE 15.0 mph - N/A   Overcast
5:16 PM 62.6 °F 46.4 °F 55% 29.78 in 10.0 mi SE 17.3 mph - N/A   Overcast
5:36 PM 64.4 °F 44.6 °F 49% 29.78 in 10.0 mi SE 16.1 mph - N/A   Mostly Cloudy
5:56 PM 64.4 °F 46.4 °F 52% 29.78 in 10.0 mi ESE 17.3 mph 21.9 mph N/A   Scattered Clouds
6:16 PM 64.4 °F 44.6 °F 49% 29.78 in 10.0 mi ESE 17.3 mph - N/A   Partly Cloudy
6:36 PM 62.6 °F 44.6 °F 52% 29.78 in 10.0 mi SE 23.0 mph - N/A   Mostly Cloudy
6:56 PM 60.8 °F 44.6 °F 55% 29.79 in 10.0 mi SE 21.9 mph 31.1 mph N/A   Mostly Cloudy
7:16 PM 60.8 °F 44.6 °F 55% 29.79 in 10.0 mi SE 23.0 mph - N/A   Overcast
7:36 PM 59.0 °F 46.4 °F 63% 29.79 in 10.0 mi ESE 21.9 mph 26.5 mph N/A   Overcast
7:56 PM 59.0 °F 46.4 °F 63% 29.79 in 10.0 mi SE 18.4 mph 25.3 mph N/A   Overcast
8:16 PM 57.2 °F 46.4 °F 67% 29.80 in 10.0 mi SE 18.4 mph 26.5 mph N/A   Overcast
8:36 PM 57.2 °F 46.4 °F 67% 29.80 in 10.0 mi SE 19.6 mph 25.3 mph N/A   Overcast
8:56 PM 55.4 °F 48.2 °F 77% 29.81 in 10.0 mi SSE 15.0 mph - N/A   Overcast
9:16 PM 53.6 °F 46.4 °F 77% 29.81 in 10.0 mi SSE 15.0 mph - N/A   Overcast
9:36 PM 53.6 °F 46.4 °F 77% 29.81 in 10.0 mi SSE 15.0 mph 19.6 mph N/A   Overcast
9:56 PM 53.6 °F 46.4 °F 77% 29.81 in 10.0 mi SSE 16.1 mph - N/A   Overcast
10:16 PM 53.6 °F 48.2 °F 82% 29.81 in 10.0 mi SSE 15.0 mph - N/A   Overcast
10:36 PM 53.6 °F 48.2 °F 82% 29.81 in 10.0 mi SSE 17.3 mph - N/A   Overcast
10:56 PM 53.6 °F 48.2 °F 82% 29.81 in 10.0 mi SSE 20.7 mph 24.2 mph N/A   Overcast
11:16 PM 53.6 °F 48.2 °F 82% 29.81 in 10.0 mi SE 16.1 mph 20.7 mph N/A   Overcast
11:36 PM 53.6 °F 48.2 °F 82% 29.82 in 10.0 mi SE 15.0 mph 23.0 mph N/A   Overcast
11:56 PM 51.8 °F 48.2 °F 88% 29.82 in 10.0 mi SE 17.3 mph - N/A   Overcast